| time (UTC) | temp F | wind direction | speed MPH | gust MPH | rain 1hr in | rain 24hr in | rain mn in | humidity % | barometer mb |
| 20260502130429 | 54 | 252 | 3.0 | 10.0 | 0.00 | 0.00 | 0.00 | 85 | 1012.6 |
| 20260502123445 | 54 | 268 | 3.0 | 9.0 | 0.00 | 0.00 | 0.00 | 85 | 1012.6 |
| 20260502122930 | 54 | 198 | 4.0 | 9.0 | 0.00 | 0.00 | 0.00 | 85 | 1012.7 |
| 20260502122416 | 54 | 256 | 2.0 | 8.0 | 0.00 | 0.00 | 0.00 | 85 | 1012.6 |
| 20260502121923 | 54 | 221 | 4.0 | 8.0 | 0.00 | 0.00 | 0.00 | 85 | 1012.6 |
| 20260502121427 | 54 | 258 | 3.0 | 8.0 | 0.00 | 0.00 | 0.00 | 85 | 1012.6 |
| 20260502120935 | 54 | 158 | 3.0 | 12.0 | 0.00 | 0.00 | 0.00 | 85 | 1012.6 |
| 20260502120420 | 54 | 209 | 6.0 | 12.0 | 0.00 | 0.00 | 0.00 | 85 | 1012.6 |
| 20260502115924 | 54 | 258 | 5.0 | 10.0 | 0.00 | 0.00 | 0.00 | 85 | 1012.5 |
| 20260502115433 | 54 | 219 | 4.0 | 16.0 | 0.00 | 0.00 | 0.00 | 85 | 1012.7 |
| 20260502114919 | 54 | 201 | 8.0 | 16.0 | 0.00 | 0.00 | 0.00 | 85 | 1012.5 |
| 20260502114427 | 54 | 262 | 6.0 | 14.0 | 0.00 | 0.00 | 0.00 | 85 | 1012.6 |
| 20260502113956 | 54 | 285 | 4.0 | 14.0 | 0.00 | 0.00 | 0.00 | 85 | 1012.7 |
| 20260502113422 | 54 | 249 | 4.0 | 13.0 | 0.00 | 0.00 | 0.00 | 85 | 1012.6 |
| 20260502112929 | 54 | 222 | 6.0 | 12.0 | 0.00 | 0.00 | 0.00 | 85 | 1012.6 |
| 20260502112436 | 54 | 205 | 5.0 | 9.0 | 0.00 | 0.00 | 0.00 | 85 | 1012.6 |
| 20260502111951 | 54 | 268 | 4.0 | 12.0 | 0.00 | 0.00 | 0.00 | 85 | 1012.6 |
| 20260502111436 | 54 | 222 | 4.0 | 12.0 | 0.00 | 0.00 | 0.00 | 85 | 1012.7 |
| 20260502110924 | 54 | 273 | 3.0 | 9.0 | 0.00 | 0.00 | 0.00 | 85 | 1012.7 |
| 20260502110428 | 54 | 268 | 3.0 | 9.0 | 0.00 | 0.00 | 0.00 | 85 | 1012.7 |
| 20260502105935 | 54 | 247 | 2.0 | 6.0 | 0.00 | 0.00 | 0.00 | 85 | 1012.6 |
| 20260502105422 | 54 | 177 | 3.0 | 7.0 | 0.00 | 0.00 | 0.00 | 85 | 1012.7 |
| 20260502104930 | 54 | 313 | 1.0 | 7.0 | 0.00 | 0.00 | 0.00 | 85 | 1012.7 |
| 20260502104436 | 54 | 203 | 2.0 | 6.0 | 0.00 | 0.00 | 0.00 | 85 | 1012.7 |
| 20260502103953 | 54 | 268 | 2.0 | 9.0 | 0.00 | 0.00 | 0.00 | 85 | 1012.8 |
| 20260502103418 | 54 | 210 | 6.0 | 9.0 | 0.00 | 0.00 | 0.00 | 85 | 1012.7 |
| 20260502102939 | 54 | 240 | 4.0 | 11.0 | 0.00 | 0.00 | 0.00 | 85 | 1012.7 |
| 20260502102427 | 54 | 212 | 3.0 | 11.0 | 0.00 | 0.00 | 0.00 | 85 | 1012.7 |
| 20260502101932 | 54 | 230 | 4.0 | 10.0 | 0.00 | 0.00 | 0.00 | 85 | 1012.8 |
| 20260502101418 | 54 | 233 | 2.0 | 7.0 | 0.00 | 0.00 | 0.00 | 85 | 1012.8 |
| 20260502100925 | 54 | 318 | 3.0 | 10.0 | 0.00 | 0.00 | 0.00 | 85 | 1012.9 |
| 20260502100430 | 54 | 301 | 3.0 | 13.0 | 0.00 | 0.00 | 0.00 | 85 | 1013.0 |
| 20260502091429 | 54 | 242 | 3.0 | 5.0 | 0.00 | 0.00 | 0.00 | 86 | 1013.5 |
| 20260502090935 | 54 | 243 | 2.0 | 4.0 | 0.00 | 0.00 | 0.00 | 86 | 1013.5 |
| 20260502090421 | 54 | 88 | 1.0 | 9.0 | 0.00 | 0.00 | 0.00 | 86 | 1013.5 |
| 20260502071426 | 54 | 289 | 4.0 | 9.0 | 0.00 | 0.00 | 0.00 | 86 | 1013.8 |
| 20260502070934 | 54 | 289 | 4.0 | 8.0 | 0.00 | 0.00 | 0.00 | 86 | 1013.8 |
| 20260502070438 | 54 | 277 | 3.0 | 11.0 | 0.00 | 0.00 | 0.00 | 86 | 1013.8 |
| 20260502065952 | 54 | 241 | 5.0 | 10.0 | 0.00 | 0.00 | 0.00 | 86 | 1013.9 |
| 20260502065438 | 54 | 196 | 5.0 | 11.0 | 0.00 | 0.00 | 0.00 | 86 | 1013.9 |
| 20260502064924 | 54 | 280 | 6.0 | 11.0 | 0.00 | 0.00 | 0.00 | 86 | 1013.9 |
| 20260502064429 | 54 | 256 | 6.0 | 10.0 | 0.00 | 0.00 | 0.00 | 86 | 1013.9 |
| 20260502063917 | 54 | 249 | 6.0 | 11.0 | 0.00 | 0.00 | 0.00 | 86 | 1013.9 |
| 20260502063419 | 54 | 242 | 6.0 | 11.0 | 0.00 | 0.00 | 0.00 | 86 | 1013.9 |
| 20260502062927 | 54 | 212 | 3.0 | 10.0 | 0.00 | 0.00 | 0.00 | 86 | 1013.9 |
| 20260502062434 | 54 | 236 | 5.0 | 13.0 | 0.00 | 0.00 | 0.00 | 86 | 1013.9 |
| 20260502061950 | 54 | 242 | 4.0 | 13.0 | 0.00 | 0.00 | 0.00 | 86 | 1013.8 |
| 20260502061417 | 54 | 308 | 5.0 | 13.0 | 0.00 | 0.00 | 0.00 | 86 | 1013.9 |
| 20260502060923 | 54 | 206 | 7.0 | 13.0 | 0.00 | 0.00 | 0.00 | 86 | 1014.0 |
| 20260502060430 | 54 | 259 | 7.0 | 13.0 | 0.00 | 0.00 | 0.00 | 86 | 1013.9 |
| 20260502055917 | 54 | 254 | 6.0 | 15.0 | 0.00 | 0.00 | 0.00 | 86 | 1013.9 |
| 20260502055420 | 54 | 219 | 9.0 | 15.0 | 0.00 | 0.00 | 0.00 | 85 | 1013.9 |
| 20260502054927 | 54 | 264 | 8.0 | 16.0 | 0.00 | 0.00 | 0.00 | 85 | 1013.9 |
| 20260502054434 | 54 | 268 | 8.0 | 16.0 | 0.00 | 0.00 | 0.00 | 85 | 1013.9 |
| 20260502053941 | 54 | 263 | 11.0 | 16.0 | 0.00 | 0.00 | 0.00 | 85 | 1013.9 |
| 20260502053427 | 54 | 249 | 10.0 | 19.0 | 0.00 | 0.00 | 0.00 | 85 | 1013.9 |
| 20260502052933 | 54 | 258 | 10.0 | 19.0 | 0.00 | 0.00 | 0.00 | 85 | 1013.9 |
| 20260502052426 | 54 | 249 | 9.0 | 17.0 | 0.00 | 0.00 | 0.00 | 85 | 1013.9 |
| 20260502051932 | 54 | 247 | 5.0 | 17.0 | 0.00 | 0.00 | 0.00 | 85 | 1014.0 |
| 20260502051419 | 54 | 314 | 8.0 | 15.0 | 0.00 | 0.00 | 0.00 | 85 | 1013.9 |
| 20260502050953 | 54 | 202 | 6.0 | 15.0 | 0.00 | 0.00 | 0.00 | 85 | 1013.9 |
| 20260502050418 | 54 | 270 | 8.0 | 16.0 | 0.00 | 0.00 | 0.00 | 85 | 1013.9 |
| 20260502045927 | 54 | 270 | 7.0 | 16.0 | 0.00 | 0.00 | 0.00 | 85 | 1013.9 |
| 20260502045435 | 54 | 268 | 5.0 | 16.0 | 0.00 | 0.00 | 0.00 | 85 | 1013.9 |
| 20260502044938 | 54 | 270 | 6.0 | 16.0 | 0.00 | 0.00 | 0.00 | 85 | 1013.9 |
| 20260502044453 | 54 | 276 | 8.0 | 13.0 | 0.00 | 0.00 | 0.00 | 85 | 1013.9 |
| 20260502043934 | 54 | 239 | 5.0 | 13.0 | 0.00 | 0.00 | 0.00 | 85 | 1013.9 |
| 20260502043450 | 54 | 275 | 5.0 | 16.0 | 0.00 | 0.00 | 0.00 | 85 | 1013.8 |
| 20260502042936 | 54 | 242 | 8.0 | 16.0 | 0.00 | 0.00 | 0.00 | 85 | 1013.7 |
| 20260502042423 | 54 | 270 | 9.0 | 16.0 | 0.00 | 0.00 | 0.00 | 85 | 1013.6 |
| 20260502041931 | 54 | 265 | 6.0 | 16.0 | 0.00 | 0.00 | 0.00 | 85 | 1013.5 |
| 20260502041417 | 54 | 276 | 9.0 | 15.0 | 0.00 | 0.00 | 0.00 | 85 | 1013.4 |
| 20260502040921 | 54 | 212 | 9.0 | 18.0 | 0.00 | 0.00 | 0.00 | 85 | 1013.3 |
| 20260502040429 | 54 | 248 | 8.0 | 18.0 | 0.00 | 0.00 | 0.00 | 85 | 1013.3 |
| 20260502035935 | 54 | 272 | 9.0 | 18.0 | 0.00 | 0.00 | 0.00 | 85 | 1013.3 |
| 20260502035423 | 54 | 264 | 10.0 | 17.0 | 0.00 | 0.00 | 0.00 | 85 | 1013.2 |
| 20260502034929 | 54 | 242 | 8.0 | 17.0 | 0.00 | 0.00 | 0.00 | 85 | 1013.2 |
| 20260502034438 | 54 | 282 | 8.0 | 14.0 | 0.00 | 0.00 | 0.00 | 85 | 1013.2 |
| 20260502033957 | 54 | 273 | 8.0 | 14.0 | 0.00 | 0.00 | 0.00 | 84 | 1013.1 |
| 20260502033437 | 54 | 215 | 8.0 | 15.0 | 0.00 | 0.00 | 0.00 | 84 | 1013.1 |
| 20260502032923 | 54 | 275 | 9.0 | 18.0 | 0.00 | 0.00 | 0.00 | 84 | 1013.0 |
| 20260502032432 | 54 | 303 | 10.0 | 18.0 | 0.00 | 0.00 | 0.00 | 84 | 1013.0 |
| 20260502031920 | 54 | 268 | 8.0 | 14.0 | 0.00 | 0.00 | 0.00 | 84 | 1013.0 |
| 20260502031450 | 54 | 242 | 7.0 | 13.0 | 0.00 | 0.00 | 0.00 | 84 | 1012.9 |
| 20260502030936 | 55 | 268 | 7.0 | 12.0 | 0.00 | 0.00 | 0.00 | 83 | 1013.0 |
| 20260502030450 | 55 | 213 | 6.0 | 13.0 | 0.00 | 0.00 | 0.00 | 83 | 1013.0 |
| 20260502025931 | 55 | 221 | 6.0 | 13.0 | 0.00 | 0.00 | 0.00 | 83 | 1012.9 |
| 20260502025437 | 55 | 222 | 2.0 | 9.0 | 0.00 | 0.00 | 0.00 | 83 | 1013.0 |
| 20260502024953 | 55 | 240 | 3.0 | 9.0 | 0.00 | 0.00 | 0.00 | 82 | 1012.9 |
| 20260502024449 | 55 | 247 | 4.0 | 7.0 | 0.00 | 0.00 | 0.00 | 82 | 1012.7 |
| 20260502023934 | 55 | 184 | 3.0 | 12.0 | 0.00 | 0.00 | 0.00 | 82 | 1012.8 |
| 20260502023423 | 55 | 128 | 5.0 | 12.0 | 0.00 | 0.00 | 0.00 | 82 | 1012.6 |
| 20260502022943 | 55 | 39 | 3.0 | 12.0 | 0.00 | 0.00 | 0.00 | 82 | 1012.5 |
| 20260502022428 | 55 | 66 | 3.0 | 12.0 | 0.00 | 0.00 | 0.00 | 82 | 1012.6 |
| 20260502021934 | 56 | 7 | 4.0 | 9.0 | 0.00 | 0.00 | 0.00 | 81 | 1012.6 |
| 20260502021451 | 56 | 134 | 5.0 | 9.0 | 0.00 | 0.00 | 0.00 | 81 | 1012.7 |
| 20260502020935 | 56 | 31 | 3.0 | 10.0 | 0.00 | 0.00 | 0.00 | 81 | 1012.7 |
| 20260502020421 | 56 | 130 | 4.0 | 16.0 | 0.00 | 0.00 | 0.00 | 82 | 1012.7 |
| 20260502015928 | 56 | 323 | 1.0 | 15.0 | 0.00 | 0.00 | 0.00 | 81 | 1012.8 |
| 20260502015430 | 56 | 116 | 7.0 | 15.0 | 0.00 | 0.00 | 0.00 | 81 | 1012.8 |
| 20260502014936 | 56 | 329 | 4.0 | 12.0 | 0.00 | 0.00 | 0.00 | 81 | 1012.7 |
| 20260502014424 | 56 | 268 | 4.0 | 12.0 | 0.00 | 0.00 | 0.00 | 80 | 1012.7 |
| 20260502013931 | 57 | 22 | 5.0 | 12.0 | 0.00 | 0.00 | 0.00 | 80 | 1012.8 |
| 20260502013417 | 57 | 75 | 3.0 | 12.0 | 0.00 | 0.00 | 0.00 | 80 | 1012.7 |
| 20260502012922 | 57 | 210 | 6.0 | 20.0 | 0.00 | 0.00 | 0.00 | 80 | 1012.6 |
| 20260502012429 | 57 | 285 | 8.0 | 19.0 | 0.00 | 0.00 | 0.00 | 80 | 1012.7 |
| 20260502011934 | 57 | 151 | 5.0 | 19.0 | 0.00 | 0.00 | 0.00 | 80 | 1012.6 |
| 20260502011435 | 58 | 282 | 7.0 | 16.0 | 0.00 | 0.00 | 0.00 | 79 | 1012.7 |
| 20260502010921 | 58 | 345 | 7.0 | 15.0 | 0.00 | 0.00 | 0.00 | 79 | 1012.7 |
| 20260502010427 | 58 | 62 | 6.0 | 17.0 | 0.00 | 0.00 | 0.00 | 79 | 1012.8 |
| 20260502005930 | 58 | 225 | 7.0 | 17.0 | 0.00 | 0.00 | 0.00 | 80 | 1012.7 |
| 20260502005434 | 58 | 301 | 7.0 | 17.0 | 0.00 | 0.00 | 0.00 | 79 | 1012.7 |
| 20260502004941 | 58 | 256 | 8.0 | 18.0 | 0.00 | 0.00 | 0.00 | 79 | 1012.7 |
| 20260502004457 | 58 | 256 | 8.0 | 18.0 | 0.00 | 0.00 | 0.00 | 79 | 1012.6 |
| 20260502003921 | 58 | 214 | 5.0 | 15.0 | 0.00 | 0.00 | 0.00 | 79 | 1012.8 |
| 20260502003426 | 58 | 313 | 7.0 | 15.0 | 0.00 | 0.00 | 0.00 | 78 | 1012.7 |
| 20260502002930 | 58 | 199 | 6.0 | 15.0 | 0.00 | 0.00 | 0.00 | 79 | 1012.7 |
| 20260502002435 | 58 | 15 | 7.0 | 12.0 | 0.00 | 0.00 | 0.00 | 79 | 1012.6 |
| 20260502001923 | 58 | 97 | 6.0 | 12.0 | 0.00 | 0.00 | 0.00 | 79 | 1012.7 |
| 20260502001430 | 58 | 32 | 6.0 | 15.0 | 0.00 | 0.00 | 0.00 | 78 | 1012.9 |
| 20260502000935 | 58 | 45 | 6.0 | 19.0 | 0.00 | 0.00 | 0.00 | 78 | 1012.9 |
| 20260502000421 | 58 | 323 | 7.0 | 19.0 | 0.00 | 0.00 | 0.00 | 78 | 1012.9 |
| 20260501235921 | 58 | 147 | 4.0 | 15.0 | 0.00 | 0.00 | 0.00 | 77 | 1013.1 |
| 20260501235446 | 58 | 319 | 4.0 | 15.0 | 0.00 | 0.00 | 0.00 | 77 | 1013.0 |
| 20260501234933 | 59 | 333 | 9.0 | 15.0 | 0.00 | 0.00 | 0.00 | 77 | 1013.0 |
| 20260501234437 | 59 | 217 | 5.0 | 10.0 | 0.00 | 0.00 | 0.00 | 77 | 1013.1 |
| 20260501233954 | 59 | 55 | 4.0 | 11.0 | 0.00 | 0.00 | 0.00 | 77 | 1013.1 |
| 20260501233442 | 59 | 337 | 4.0 | 17.0 | 0.00 | 0.00 | 0.00 | 77 | 1013.3 |
| 20260501232929 | 59 | 50 | 3.0 | 17.0 | 0.00 | 0.00 | 0.00 | 77 | 1013.3 |
| 20260501232436 | 59 | 111 | 4.0 | 16.0 | 0.00 | 0.00 | 0.00 | 77 | 1013.2 |
| 20260501231953 | 58 | 45 | 6.0 | 14.0 | 0.00 | 0.00 | 0.00 | 78 | 1013.3 |
| 20260501231447 | 58 | 302 | 7.0 | 16.0 | 0.00 | 0.00 | 0.00 | 77 | 1013.3 |
| 20260501231002 | 59 | 294 | 9.0 | 18.0 | 0.00 | 0.00 | 0.00 | 77 | 1013.3 |
| 20260501230456 | 59 | 297 | 10.0 | 18.0 | 0.00 | 0.00 | 0.00 | 77 | 1013.3 |
| 20260501225931 | 59 | 8 | 8.0 | 15.0 | 0.00 | 0.00 | 0.00 | 76 | 1013.3 |
| 20260501225419 | 59 | 294 | 7.0 | 15.0 | 0.00 | 0.00 | 0.00 | 77 | 1013.5 |
| 20260501224945 | 59 | 22 | 5.0 | 13.0 | 0.00 | 0.00 | 0.00 | 77 | 1013.5 |
| 20260501224430 | 59 | 330 | 7.0 | 13.0 | 0.00 | 0.00 | 0.00 | 77 | 1013.6 |
| 20260501223936 | 59 | 350 | 6.0 | 15.0 | 0.00 | 0.00 | 0.00 | 77 | 1013.5 |
| 20260501223423 | 59 | 341 | 7.0 | 15.0 | 0.00 | 0.00 | 0.00 | 77 | 1013.6 |
| 20260501222928 | 59 | 306 | 5.0 | 17.0 | 0.00 | 0.00 | 0.00 | 76 | 1013.7 |
| 20260501222431 | 59 | 320 | 6.0 | 17.0 | 0.00 | 0.00 | 0.00 | 76 | 1013.8 |
| 20260501221918 | 60 | 276 | 7.0 | 12.0 | 0.00 | 0.00 | 0.00 | 76 | 1014.0 |
| 20260501221423 | 59 | 7 | 6.0 | 17.0 | 0.00 | 0.00 | 0.00 | 76 | 1014.2 |
| 20260501220932 | 59 | 302 | 3.0 | 17.0 | 0.00 | 0.00 | 0.00 | 77 | 1014.4 |
| 20260501220436 | 59 | 240 | 8.0 | 15.0 | 0.00 | 0.00 | 0.00 | 77 | 1014.5 |
| 20260501215939 | 59 | 268 | 6.0 | 15.0 | 0.00 | 0.00 | 0.00 | 77 | 1014.7 |
| 20260501215423 | 59 | 13 | 7.0 | 17.0 | 0.00 | 0.00 | 0.00 | 77 | 1014.7 |
| 20260501214945 | 59 | 315 | 10.0 | 17.0 | 0.00 | 0.00 | 0.00 | 77 | 1014.6 |
| 20260501214429 | 60 | 308 | 3.0 | 9.0 | 0.00 | 0.00 | 0.00 | 77 | 1014.7 |
| 20260501213935 | 59 | 289 | 4.0 | 13.0 | 0.00 | 0.00 | 0.00 | 77 | 1014.7 |
| 20260501213421 | 59 | 304 | 7.0 | 13.0 | 0.00 | 0.00 | 0.00 | 76 | 1014.7 |
| 20260501212929 | 59 | 7 | 5.0 | 10.0 | 0.00 | 0.00 | 0.00 | 76 | 1014.8 |
| 20260501212433 | 60 | 352 | 5.0 | 13.0 | 0.00 | 0.00 | 0.00 | 76 | 1014.8 |
| 20260501211934 | 60 | 252 | 3.0 | 10.0 | 0.00 | 0.00 | 0.00 | 77 | 1014.7 |
| 20260501211448 | 59 | 322 | 3.0 | 11.0 | 0.00 | 0.00 | 0.00 | 78 | 1014.8 |
| 20260501210934 | 59 | 256 | 5.0 | 12.0 | 0.00 | 0.00 | 0.00 | 78 | 1014.9 |
| 20260501210420 | 59 | 233 | 2.0 | 14.0 | 0.00 | 0.00 | 0.00 | 79 | 1015.0 |
| 20260501205925 | 58 | 289 | 4.0 | 13.0 | 0.00 | 0.00 | 0.00 | 79 | 1015.0 |
| 20260501205432 | 58 | 222 | 7.0 | 16.0 | 0.00 | 0.00 | 0.00 | 79 | 1015.0 |
| 20260501204938 | 58 | 229 | 7.0 | 16.0 | 0.00 | 0.00 | 0.00 | 79 | 1015.0 |
| 20260501204441 | 58 | 282 | 3.0 | 14.0 | 0.00 | 0.00 | 0.00 | 78 | 1015.1 |
| 20260501203945 | 59 | 260 | 6.0 | 14.0 | 0.00 | 0.00 | 0.00 | 80 | 1015.1 |
| 20260501203429 | 58 | 268 | 3.0 | 14.0 | 0.00 | 0.00 | 0.00 | 79 | 1015.2 |
| 20260501202933 | 58 | 256 | 5.0 | 13.0 | 0.00 | 0.00 | 0.00 | 79 | 1015.2 |
| 20260501202419 | 58 | 275 | 6.0 | 18.0 | 0.00 | 0.00 | 0.00 | 79 | 1015.3 |
| 20260501201924 | 58 | 236 | 8.0 | 18.0 | 0.00 | 0.00 | 0.00 | 79 | 1015.3 |
| 20260501201427 | 58 | 196 | 5.0 | 15.0 | 0.00 | 0.00 | 0.00 | 79 | 1015.2 |
| 20260501200931 | 58 | 273 | 9.0 | 15.0 | 0.00 | 0.00 | 0.00 | 80 | 1015.3 |
| 20260501200417 | 58 | 310 | 5.0 | 14.0 | 0.00 | 0.00 | 0.00 | 80 | 1015.2 |
| 20260501195924 | 57 | 295 | 4.0 | 17.0 | 0.00 | 0.00 | 0.00 | 80 | 1015.3 |
| 20260501195450 | 57 | 252 | 8.0 | 17.0 | 0.00 | 0.00 | 0.00 | 80 | 1015.4 |
| 20260501194935 | 58 | 283 | 8.0 | 13.0 | 0.00 | 0.00 | 0.00 | 80 | 1015.5 |
| 20260501194443 | 58 | 296 | 4.0 | 13.0 | 0.00 | 0.00 | 0.00 | 81 | 1015.4 |
| 20260501193953 | 57 | 169 | 5.0 | 16.0 | 0.00 | 0.00 | 0.00 | 81 | 1015.5 |
| 20260501193439 | 57 | 292 | 8.0 | 16.0 | 0.00 | 0.00 | 0.00 | 81 | 1015.4 |
| 20260501192921 | 57 | 341 | 2.0 | 11.0 | 0.00 | 0.00 | 0.00 | 81 | 1015.4 |
| 20260501192448 | 57 | 321 | 5.0 | 11.0 | 0.00 | 0.00 | 0.00 | 82 | 1015.6 |
| 20260501191933 | 57 | 163 | 5.0 | 16.0 | 0.00 | 0.00 | 0.00 | 82 | 1015.5 |
| 20260501191417 | 57 | 271 | 10.0 | 16.0 | 0.00 | 0.00 | 0.00 | 82 | 1015.5 |
| 20260501190917 | 57 | 287 | 6.0 | 14.0 | 0.00 | 0.00 | 0.00 | 82 | 1015.6 |
| 20260501190444 | 57 | 284 | 4.0 | 15.0 | 0.00 | 0.00 | 0.00 | 83 | 1015.6 |
| 20260501185940 | 56 | 308 | 4.0 | 10.0 | 0.00 | 0.00 | 0.00 | 83 | 1015.7 |
| 20260501185426 | 56 | 314 | 3.0 | 12.0 | 0.00 | 0.00 | 0.00 | 83 | 1015.7 |
| 20260501184931 | 56 | 302 | 7.0 | 12.0 | 0.00 | 0.00 | 0.00 | 83 | 1015.8 |
| 20260501184435 | 56 | 263 | 4.0 | 13.0 | 0.00 | 0.00 | 0.00 | 84 | 1015.9 |
| 20260501183919 | 56 | 240 | 5.0 | 13.0 | 0.00 | 0.00 | 0.00 | 84 | 1015.8 |
| 20260501183421 | 56 | 285 | 5.0 | 11.0 | 0.00 | 0.00 | 0.00 | 85 | 1016.0 |
| 20260501182954 | 55 | 247 | 3.0 | 8.0 | 0.00 | 0.00 | 0.00 | 85 | 1015.9 |
| 20260501182419 | 55 | 218 | 4.0 | 11.0 | 0.00 | 0.00 | 0.00 | 85 | 1016.0 |
| 20260501181926 | 55 | 237 | 5.0 | 10.0 | 0.00 | 0.00 | 0.00 | 85 | 1015.9 |
| 20260501181434 | 55 | 304 | 5.0 | 9.0 | 0.00 | 0.00 | 0.00 | 85 | 1015.8 |
| 20260501180921 | 55 | 333 | 4.0 | 8.0 | 0.00 | 0.00 | 0.00 | 85 | 1015.8 |
| 20260501180429 | 55 | 360 | 4.0 | 7.0 | 0.00 | 0.00 | 0.00 | 86 | 1015.9 |
| 20260501175930 | 55 | 250 | 3.0 | 7.0 | 0.00 | 0.00 | 0.00 | 86 | 1015.9 |
| 20260501175436 | 55 | 313 | 3.0 | 10.0 | 0.00 | 0.00 | 0.00 | 86 | 1015.9 |
| 20260501174923 | 55 | 256 | 4.0 | 11.0 | 0.00 | 0.00 | 0.00 | 86 | 1015.9 |
| 20260501174430 | 54 | 222 | 6.0 | 11.0 | 0.00 | 0.00 | 0.00 | 86 | 1015.9 |
| 20260501173934 | 54 | 213 | 5.0 | 11.0 | 0.00 | 0.00 | 0.00 | 86 | 1015.9 |
| 20260501173419 | 54 | 290 | 3.0 | 13.0 | 0.00 | 0.00 | 0.00 | 86 | 1015.8 |
| 20260501172924 | 54 | 256 | 7.0 | 13.0 | 0.00 | 0.00 | 0.00 | 86 | 1015.8 |
| 20260501172425 | 54 | 303 | 5.0 | 14.0 | 0.00 | 0.00 | 0.00 | 86 | 1015.8 |
| 20260501171931 | 54 | 275 | 4.0 | 14.0 | 0.00 | 0.00 | 0.00 | 86 | 1015.9 |
| 20260501171448 | 54 | 294 | 7.0 | 10.0 | 0.00 | 0.00 | 0.00 | 86 | 1015.8 |
| 20260501170935 | 54 | 313 | 3.0 | 12.0 | 0.00 | 0.00 | 0.00 | 87 | 1015.9 |
| 20260501170441 | 54 | 268 | 6.0 | 12.0 | 0.00 | 0.00 | 0.00 | 87 | 1015.9 |
| 20260501165946 | 54 | 287 | 4.0 | 9.0 | 0.00 | 0.00 | 0.00 | 87 | 1015.9 |
| 20260501165426 | 54 | 261 | 4.0 | 13.0 | 0.00 | 0.00 | 0.00 | 87 | 1015.8 |
| 20260501164934 | 54 | 256 | 5.0 | 13.0 | 0.00 | 0.00 | 0.00 | 87 | 1015.8 |
| 20260501164420 | 54 | 313 | 3.0 | 8.0 | 0.00 | 0.00 | 0.00 | 87 | 1015.8 |
| 20260501163927 | 54 | 205 | 1.0 | 9.0 | 0.00 | 0.00 | 0.00 | 87 | 1015.7 |
| 20260501163435 | 54 | 322 | 1.0 | 7.0 | 0.00 | 0.00 | 0.00 | 87 | 1015.8 |
| 20260501162920 | 54 | 339 | 4.0 | 11.0 | 0.00 | 0.00 | 0.00 | 87 | 1015.6 |
| 20260501162426 | 54 | 198 | 4.0 | 11.0 | 0.00 | 0.00 | 0.00 | 87 | 1015.7 |
| 20260501161934 | 54 | 360 | 2.0 | 8.0 | 0.00 | 0.00 | 0.00 | 87 | 1015.6 |
| 20260501161435 | 54 | 268 | 3.0 | 12.0 | 0.00 | 0.00 | 0.00 | 87 | 1015.6 |
| 20260501160923 | 54 | 242 | 5.0 | 12.0 | 0.00 | 0.00 | 0.00 | 87 | 1015.5 |
| 20260501160430 | 54 | 313 | 3.0 | 5.0 | 0.00 | 0.00 | 0.00 | 87 | 1015.5 |
| 20260501155935 | 54 | 282 | 2.0 | 5.0 | 0.00 | 0.00 | 0.00 | 87 | 1015.4 |
| 20260501155422 | 54 | 192 | 2.0 | 5.0 | 0.00 | 0.00 | 0.00 | 87 | 1015.4 |
| 20260501154434 | 54 | 292 | 3.0 | 8.0 | 0.00 | 0.00 | 0.00 | 87 | 1015.3 |
| 20260501153946 | 54 | 285 | 2.0 | 9.0 | 0.00 | 0.00 | 0.00 | 87 | 1015.3 |
| 20260501153433 | 54 | 134 | 5.0 | 9.0 | 0.00 | 0.00 | 0.00 | 87 | 1015.3 |
| 20260501152919 | 54 | 240 | 2.0 | 5.0 | 0.00 | 0.00 | 0.00 | 87 | 1015.3 |
| 20260501152424 | 54 | 19 | 1.0 | 4.0 | 0.00 | 0.00 | 0.00 | 87 | 1015.3 |
| 20260501151930 | 53 | 164 | 2.0 | 4.0 | 0.00 | 0.00 | 0.00 | 87 | 1015.2 |
| 20260501151416 | 53 | 62 | 1.0 | 11.0 | 0.00 | 0.00 | 0.00 | 87 | 1015.2 |
| 20260501150922 | 53 | 355 | 6.0 | 11.0 | 0.00 | 0.00 | 0.00 | 87 | 1015.1 |
| 20260501150429 | 53 | 290 | 4.0 | 8.0 | 0.00 | 0.00 | 0.00 | 87 | 1015.1 |
| 20260501145931 | 53 | 221 | 4.0 | 10.0 | 0.00 | 0.00 | 0.00 | 87 | 1015.1 |
| 20260501145436 | 53 | 256 | 6.0 | 13.0 | 0.00 | 0.00 | 0.00 | 87 | 1015.1 |